Regional Weather Roundup
Issued by NWS

Home | Current Version | Previous Version | Text Only | Print | Product List | Glossary Off
Versions: 1 2 3 4 5 6 7 8 9 10 11 12 13 14 15 16 17 18 19 20 21 22 23 24 25 26 27 28 29 30 31 32 33 34 35 36 37 38 39 40 41 42 43 44 45 46 47 48 49 50

799
ASUS43 KOAX 291002
RWRNE

WEATHER ROUNDUP FOR NEBRASKA
NATIONAL WEATHER SERVICE OMAHA NE
500 AM CDT FRI APR 29 2016

NOTES: SATELLITE DATA IS BEING USED TO AUGMENT CLOUD COVER ABOVE
       12000 FEET.
       "FAIR" INDICATES FEW OR NO CLOUDS BELOW 12,000 FEET WITH NO
       SIGNIFICANT WEATHER AND/OR OBSTRUCTIONS TO VISIBILITY.

  * THESE STATIONS DO NOT REPORT WEATHER SUCH AS RAIN...SNOW OR FOG.

NEZ001>004-019>022-054>056-291100-
NEBRASKA PANHANDLE

CITY           SKY/WX    TMP DP  RH WIND       PRES   REMARKS
SCOTTSBLUFF    CLOUDY    35  32  88 S5        30.09R WCI  31
ALLIANCE       CLOUDY    36  35  96 E5        30.09R WCI  32
CHADRON        CLOUDY    37  35  92 NE6       30.11S WCI  32
KIMBALL        CLOUDY    33  32  98 E6        30.08R FOG     WCI  27
SIDNEY         CLOUDY    35  34  96 E5        30.09R WCI  31
$$

NEZ057>060-069>072-079>082-291100-
SOUTHWEST NEBRASKA

CITY           SKY/WX    TMP DP  RH WIND       PRES   REMARKS
NORTH PLATTE   CLOUDY    40  38  93 NE6       30.10S
IMPERIAL       CLOUDY    41  38  89 E5        30.08F
LEXINGTON      CLOUDY    42  40  91 E6        30.10S
MCCOOK         CLOUDY    44  40  85 E6        30.09S
$$

NEZ005>010-023>029-035>040-094-291100-
NORTH CENTRAL NEBRASKA

CITY           SKY/WX    TMP DP  RH WIND       PRES   REMARKS
VALENTINE      CLOUDY    39  37  92 CALM      30.12R
BROKEN BOW     CLOUDY    39  37  92 CALM      30.10F
ORD            CLOUDY    41  39  93 CALM      30.10F
$$

NEZ041-046>049-061>064-073>077-083>087-291100-
SOUTH CENTRAL NEBRASKA

CITY           SKY/WX    TMP DP  RH WIND       PRES   REMARKS
GRAND ISLAND   CLOUDY    40  38  93 N5        30.11F
AURORA         CLOUDY    41  40  97 N6        30.11S
HASTINGS       CLOUDY    42  39  89 N7        30.08F
KEARNEY *      CLOUDY    39  37  93 N6        30.10S WCI  35
YORK           CLOUDY    41  39  93 CALM      30.11F
$$

NEZ011>018-030>034-042>045-291100-
NORTHEAST NEBRASKA

CITY           SKY/WX    TMP DP  RH WIND       PRES   REMARKS
NORFOLK        CLOUDY    42  38  85 N6        30.11F
ALBION         CLOUDY    42  38  87 CALM      30.12S
BLAIR          CLOUDY    44  41  90 N5        30.11F
COLUMBUS *     CLOUDY    43  34  70 NW5       30.13S
FREMONT        CLOUDY    43  41  91 CALM      30.13S
TEKAMAH        CLOUDY    43  41  93 N6        30.13S
$$

NEZ050>053-065>068-078-088>093-291100-
SOUTHEAST NEBRASKA

CITY           SKY/WX    TMP DP  RH WIND       PRES   REMARKS
LINCOLN        CLOUDY    46  41  82 N6        30.13S
OMAHA EPPLEY   CLOUDY    45  41  86 N8        30.12S
FALLS CITY     CLOUDY    47  40  76 N12       30.06F
$$

NEZ044-045-051>053-067-291100-
OMAHA AREA

CITY           SKY/WX    TMP DP  RH WIND       PRES   REMARKS
OMAHA EPPLEY   CLOUDY    45  41  86 N8        30.12S
BLAIR          CLOUDY    44  41  90 N5        30.11F
FREMONT        CLOUDY    43  41  91 CALM      30.13S
$$




USA.gov is the U.S. government's official web portal to all federal, state and local government web resources and services.